Regional Weather Roundup
Issued by NWS Northern Indiana

Home | Current Version | Previous Version | Text Only | Print | Product List | Glossary Off
Versions: 1 2 3 4 5 6 7 8 9 10 11 12 13 14 15 16 17 18 19 20 21 22 23 24 25 26 27 28 29 30 31 32 33 34 35 36 37 38 39 40 41 42 43 44 45 46 47 48 49 50

862
ASUS43 KIWX 221210
RWRIWX

KIWX WEATHER ROUNDUP
NATIONAL WEATHER SERVICE NORTHERN INDIANA
700 AM EST WED NOV 22 2017

NOTE: "FAIR" INDICATES FEW OR NO CLOUDS BELOW 12,000 FEET WITH NO
SIGNIFICANT WEATHER AND/OR OBSTRUCTIONS TO VISIBILITY.

* THESE STATIONS ARE NOT UNDER NWS QUALITY CONTROL. THEY ALSO MAY NOT
  REPORT WEATHER SUCH AS PRECIPITATION OR FOG.

INZ001>027-221300-
NORTHERN INDIANA

CITY           SKY/WX    TMP DP  RH WIND       PRES   REMARKS
GARY*          PTCLDY    27  16  63 NW12      30.30S WCI  16
VALPARAISO     CLOUDY    32  22  66 N8        30.29R WCI  25
6HR MIN TEMP:  30; 6HR MAX TEMP:  33;

MICHIGAN CITY* CLOUDY    32  21  64 N3        30.29R
LAPORTE*       CLOUDY    31  21  68 NW9       30.28R WCI  22
KNOX*          CLOUDY    28  21  74 W6        30.27R WCI  22
SOUTH BEND     CLOUDY    31  23  72 NW6       30.27R WCI  25
6HR MIN TEMP:  31; 6HR MAX TEMP:  32;

ELKHART*       CLOUDY    32  19  59 N6        30.25  WCI  26
GOSHEN         CLOUDY    32  21  64 N8        30.24R WCI  25
6HR MIN TEMP:  32; 6HR MAX TEMP:  33;

MONTICELLO*    CLEAR     22  17  81 NW7       30.29R WCI  14
6HR MIN TEMP:  22; 6HR MAX TEMP:  28;

LOGANSPORT*    MOCLDY    27  19  74 NW6       30.28S WCI  20
ROCHESTER*     CLOUDY    32  25  74 W7        30.26R WCI  26
WARSAW*        CLOUDY    32  21  64 NW7       30.24S WCI  26
AUBURN*        CLOUDY    32  23  69 N5        30.24R WCI  27
FORT WAYNE     MOCLDY    34  26  72 NW7       30.24R WCI  28
6HR MIN TEMP:  34; 6HR MAX TEMP:  35;

HUNTINGTON*    MOCLDY    30  25  80 NW5       30.24R WCI  26
6HR MIN TEMP:  30; 6HR MAX TEMP:  32;

PERU/GRISSOM   MOCLDY    26  20  78 NW8       30.26R WCI  18
6HR MIN TEMP:  26; 6HR MAX TEMP:  31;

MARION*        MOCLDY    28  24  84 NW9       30.26R HAZE    WCI  19
6HR MIN TEMP:  23; 6HR MAX TEMP:  58;


$$
INZ028>050-221300-
CENTRAL INDIANA

CITY           SKY/WX    TMP DP  RH WIND       PRES   REMARKS
LAFAYETTE      PTCLDY    23  17  78 NW12      30.30R WCI  12
6HR MIN TEMP:  22; 6HR MAX TEMP:  28;

KOKOMO*        CLOUDY    27  21  78 NW8       30.27R WCI  19
6HR MIN TEMP:  26; 6HR MAX TEMP:  31;

MUNCIE*        PTCLDY    29  23  78 NW9       30.24R WCI  20
6HR MIN TEMP:  29; 6HR MAX TEMP:  32;

INDIANAPOLIS   CLEAR     23  18  81 NW8       30.28R WCI  14
6HR MIN TEMP:  23; 6HR MAX TEMP:  29;


$$
MIZ043>046-050>051-056>058-064>065-071>073-077>080-221300-
SOUTHWEST LOWER MICHIGAN

CITY           SKY/WX    TMP DP  RH WIND       PRES   REMARKS
BATTLE CREEK   CLOUDY    29  17  61 N7        30.26R WCI  22
6HR MIN TEMP:  29; 6HR MAX TEMP:  32;

BENTON HARBOR  CLOUDY    31  20  63 NE6       30.27R WCI  25
6HR MIN TEMP:  31; 6HR MAX TEMP:  35;

COLDWATER*     CLOUDY    30  17  58 NW9       30.24R WCI  21
6HR MIN TEMP:  30; 6HR MAX TEMP:  32;

HILLSDALE*     CLOUDY    30  19  64 NW7       30.21R WCI  23
HOLLAND        CLOUDY    30  18  60 NE5       30.27R WCI  25
6HR MIN TEMP:  30; 6HR MAX TEMP:  33;

GRAND RAPIDS   CLOUDY    29  19  66 NW6       30.26R WCI  23
6HR MIN TEMP:  29; 6HR MAX TEMP:  32;

KALAMAZOO      CLOUDY    29  15  56 N8        30.26R WCI  21
6HR MIN TEMP:  29; 6HR MAX TEMP:  32;

STURGIS*       CLOUDY    29  21  71 N8        30.24R WCI  21
6HR MIN TEMP:  29; 6HR MAX TEMP:  32;

THREE RIVERS*  CLOUDY    31  20  63 N3        30.27R
6HR MIN TEMP:  31; 6HR MAX TEMP:  34;


$$
OHZ001>008-015>018-024>025-221300-
NORTHWEST OHIO

CITY           SKY/WX    TMP DP  RH WIND       PRES   REMARKS
WAUSEON*         N/A     32  23  69 NW8       30.22R WCI  25
DEFIANCE       CLOUDY    32  19  58 N10G20    30.24R WCI  24
6HR MIN TEMP:  32; 6HR MAX TEMP:  34;

FINDLAY        CLOUDY    33  22  63 NW12      30.20R WCI  24
6HR MIN TEMP:  33; 6HR MAX TEMP:  36;

TOLEDO EXPRESS CLOUDY    32  21  64 N12       30.23R WCI  23
6HR MIN TEMP:  32; 6HR MAX TEMP:  36;

TOLEDO METCALF CLOUDY    32  21  64 NW13      30.24R WCI  22
6HR MIN TEMP:  32; 6HR MAX TEMP:  36;

LIMA           CLOUDY    31  21  66 NW14G24   30.21R WCI  21
6HR MIN TEMP:  31; 6HR MAX TEMP:  33;


$$
AND FOR LAKE MICHIGAN COASTAL AND OPEN LAKE BUOY OBSERVATIONS

STATION/POSITION TEMP    WIND        PRES    VSBY  WAVE
                 AIR SEA DIR/SP/G                  HT/PER
                 (F)     (DEG/KT/KT) (MB)    (MI)  (FT/S)
CALUMET HARBOR    25     280/  6/  8 1025.7R
MICHIGAN CITY     32     350/ 11/ 15   N/A
BURNS HARBOR      32      10/ 12/ 18 1026.1R
SAINT JOSEPH      34     360/ 12/ 15 1025.7
SOUTH LAKE BUOY   31 47  360/ 10/ 16 1025.8          4/ 7

$$
&&




USA.gov is the U.S. government's official web portal to all federal, state and local government web resources and services.